Regional Weather Roundup
Issued by NWS

Home | Current Version | Previous Version | Text Only | Print | Product List | Glossary Off
Versions: 1 2 3 4 5 6 7 8 9 10 11 12 13 14 15 16 17 18 19 20 21 22 23 24 25 26 27

000
ASUS45 KBOU 141410
RWRCO

WEATHER ROUNDUP FOR COLORADO
NATIONAL WEATHER SERVICE DENVER/BOULDER CO
700 AM MST THU DEC 14 2017

NOTE: "FAIR" INDICATES FEW OR NO CLOUDS BELOW 12000 FEET WITH NO
SIGNIFICANT WEATHER AND/OR OBSTRUCTIONS TO VISIBILITY.

COZ001>005-013-030-031-141500-
...NORTHWEST COLORADO...

CITY           SKY/WX    TMP DP  RH WIND       PRES   REMARKS
CRAIG          FAIR      18  12  77 SW5       30.27R WCI  11
HAYDEN         CLOUDY    19  17  92 SW6       30.27R WCI  11
MEEKER         MOCLDY    27  20  75 NE13      30.26R WCI  16
RABBIT EARS PA CLOUDY    14  10  85 CALM      30.15R
STEAMBOAT SPGS CLOUDY    24  19  81 CALM      30.22R
WALDEN         CLOUDY    19  16  86 NW5       30.21R WCI  13
$$

COZ006>008-011-141500-
...WEST CENTRAL VALLEYS...

CITY           SKY/WX    TMP DP  RH WIND       PRES   REMARKS
GRAND JUNCTION FAIR      32  24  72 W6        30.21R WCI  26
MONTROSE       CLOUDY    32  26  78 CALM      30.18R
EAGLE          MOCLDY    24  23  96 CALM      30.21R
RIFLE          FAIR      26  23  88 S3        30.21R
DELTA          FAIR      32  26  78 N5        30.18R WCI  28
NUCLA          CLOUDY    34  23  64 CALM      30.14R
$$

COZ017>023-064>068-141500-
...SOUTHWEST COLORADO...

CITY           SKY/WX    TMP DP  RH WIND       PRES   REMARKS
DURANGO        CLOUDY    21   7  54 NE7       30.01R WCI  12
CORTEZ         CLOUDY    37  26  64 NW16      30.05R
PAGOSA SPRINGS CLOUDY    32   5  31 CALM      30.03R
TELLURIDE      CLOUDY    26  19  77 SW3       30.10R
WOLF CREEK PAS SNOW      14  14 100 NW7       30.09S VSB 1/2 WCI   4
$$

COZ009-010-012-014-032>034-037-058>063-141500-
...CENTRAL COLORADO...

CITY           SKY/WX    TMP DP  RH WIND       PRES   REMARKS
ASPEN          CLOUDY    26  25  96 NW7       30.14R WCI  18
BUENA VISTA    LGT SNOW  25  23  91 SW3       30.17R
COPPER MTN     NOT AVBL
BERTHOUD PASS  CLOUDY     9  -4  56 NW7G23    30.10R WCI  -3
COTTONWOOD PAS LGT SNOW  27  23  86 CALM      30.14R
GUNNISON       LGT SNOW  27  25  92 NE3       30.12R FOG
KREMMLING      FAIR      28  19  69 N9G17     30.21R WCI  20
LEADVILLE      LGT SNOW  17  15  92 S5        30.11R FOG     WCI  10
MONARCH PASS   CLOUDY    12   9  85 NE31      30.15R WCI -10
SALIDA         CLOUDY    27  25  91 E6        30.25R WCI  21
SUNLIGHT       CLOUDY   N/A N/A N/A NE3       30.19R HAZE
WILKERSON PASS FLURRIES  14  10  85 W3        30.14R
$$

COZ069>075-141500-
...SAN LUIS VALLEY/SANGRE DE CRISTO MOUNTAINS...

CITY           SKY/WX    TMP DP  RH WIND       PRES   REMARKS
ALAMOSA        LGT SNOW  28  21  75 S3        30.08R
DEL NORTE      LGT SNOW  27  25  94 CALM      30.08R
LA VETA PASS   LGT SNOW  14  12  92 NE20        N/A  VSB 3/4 WCI  -3
SAGUACHE       LGT SNOW  28  27  93 N6        30.09R WCI  22
$$

COZ035-036-038>040-141500-
...NORTHERN COLORADO FRONT RANGE...

CITY           SKY/WX    TMP DP  RH WIND       PRES   REMARKS
DENVER INTL AP FAIR      27  24  89 SW8       30.20R WCI  19
DMNS CITY PARK NOT AVBL
AURORA         NOT AVBL
FRONT RANGE AP CLOUDY    28  28 100 SW7       30.21R WCI  21
ERIE MUNI ARPT MOCLDY    27  26  95 S5        30.26F WCI  22
BOULDER MUN AP MOCLDY    30  28  93 S3        30.19F
CENTENNIAL     CLOUDY    27  26  96 SW8       30.21R FOG     WCI  19
BROOMFIELD     CLOUDY    -6  27 100 SW3       30.21R
FORT COLLINS   MOCLDY    26  24  92 S6        30.21R WCI  19
LONGMONT       FAIR      29  27  92 SW3       30.22F
$$

COZ041-046-047-076>085-087-088-141500-
...PIKES PEAK/PALMER DIVIDE AND SOUTHERN FOOTHILLS...

CITY           SKY/WX    TMP DP  RH WIND       PRES   REMARKS
COLO. SPRINGS  CLOUDY    29  22  75 NW12      30.21R WCI  19
A. F. ACADEMY  FAIR      26  20  79 N9        30.19R WCI  17
SCHRIEVER AFB  FRZ DRZL  27  21  80 N6        30.20R WCI  20
CHEYENNE MTN   FLURRIES  25  23  93 N10       30.13R WCI  15
ELLICOTT         N/A    N/A N/A N/A N13       30.18R
FALCON         CLOUDY    26  19  77 N9G16     30.19R WCI  16
FORT CARSON    FAIR      29  22  76 N9        30.20R WCI  21
LIMON          LGT SNOW  28  26  92 NW13      30.19S FOG     WCI  17
MONUMENT HILL  LGT SNOW  23  21  93 NW8       30.20R WCI  14
CANON CITY     LGT SNOW  32  32 100 CALM      30.22R
WALSENBURG     NOT AVBL
TRINIDAD       CLOUDY    29  22  75 NE10      30.22R WCI  20
$$

COZ042>045-048>051-090-091-141500-
...NORTHEAST COLORADO...

CITY           SKY/WX    TMP DP  RH WIND       PRES   REMARKS
GREELEY ARPT   CLOUDY    33  26  75 SW7       30.21S WCI  27
AKRON          CLOUDY    28  25  88 W12       30.15S WCI  18
BURLINGTON     FAIR      32  27  81 NW15      30.16R WCI  22
WRAY           FAIR      32  28  86 W9        30.14S WCI  24
YUMA           FAIR      28  27  93 W12       30.15R WCI  18
STERLING       CLOUDY    34  27  75 W10       30.16R WCI  26
HOLYOKE        FAIR      36  27  69 NW12      30.13F
FORT MORGAN    CLOUDY    29  26  87 W8        30.19S WCI  21
$$

COZ086-089-092>099-141500-
...SOUTHEAST COLORADO...

CITY           SKY/WX    TMP DP  RH WIND       PRES   REMARKS
PUEBLO         CLOUDY    32  30  92 S5        30.23S WCI  27
LA JUNTA       LGT SNOW  32  31  96 W6        30.23R WCI  26
LAMAR          LGT SNOW  32  30  92 SW7       30.20R FOG     WCI  26
SPRINGFIELD      N/A     29  29 100 NW10      30.19R WCI  20
$$




USA.gov is the U.S. government's official web portal to all federal, state and local government web resources and services.